| time (UTC) | temp F | wind direction | speed knots | gust knots | rain 1hr in | rain 24hr in | rain mn in | humidity % | barometer mb |
| 20260510082949 | 75 | 119 | 0.9 | 5.2 | 0.00 | 0.20 | 0.00 | 97 | 1010.4 |
| 20260510082421 | 75 | 118 | 0.9 | 5.2 | 0.00 | 0.20 | 0.00 | 97 | 1010.5 |
| 20260510081917 | 75 | 141 | 0.9 | 4.3 | 0.00 | 0.20 | 0.00 | 97 | 1010.5 |
| 20260510081415 | 75 | 149 | 1.7 | 6.1 | 0.00 | 0.20 | 0.00 | 97 | 1010.5 |
| 20260510080911 | 75 | 131 | 1.7 | 6.1 | 0.00 | 0.20 | 0.00 | 96 | 1010.5 |
| 20260510080408 | 75 | 160 | 0.9 | 4.3 | 0.00 | 0.20 | 0.00 | 96 | 1010.4 |
| 20260510075841 | 75 | 160 | 0.9 | 4.3 | 0.00 | 0.20 | 0.00 | 96 | 1010.4 |
| 20260510075338 | 75 | 170 | 0.9 | 4.3 | 0.00 | 0.20 | 0.00 | 96 | 1010.4 |
| 20260510074811 | 75 | 174 | 0.9 | 6.1 | 0.00 | 0.20 | 0.00 | 96 | 1010.4 |
| 20260510074539 | 75 | 139 | 0.9 | 6.1 | 0.00 | 0.20 | 0.00 | 96 | 1010.4 |
| 20260510073745 | 75 | 172 | 0.9 | 7.0 | 0.00 | 0.20 | 0.00 | 96 | 1010.3 |
| 20260510073216 | 75 | 172 | 2.6 | 7.0 | 0.00 | 0.20 | 0.00 | 96 | 1010.3 |
| 20260510072650 | 75 | 143 | 2.6 | 7.8 | 0.00 | 0.20 | 0.00 | 96 | 1010.2 |
| 20260510072124 | 75 | 134 | 2.6 | 6.1 | 0.00 | 0.20 | 0.00 | 96 | 1010.3 |
| 20260510071559 | 75 | 149 | 2.6 | 9.6 | 0.00 | 0.20 | 0.00 | 96 | 1010.4 |
| 20260510071303 | 75 | 168 | 2.6 | 8.7 | 0.00 | 0.20 | 0.00 | 96 | 1010.4 |
| 20260510070504 | 76 | 145 | 1.7 | 6.1 | 0.00 | 0.20 | 0.00 | 97 | 1010.5 |
| 20260510065937 | 76 | 166 | 1.7 | 6.1 | 0.00 | 0.20 | 0.00 | 97 | 1010.5 |
| 20260510065435 | 76 | 164 | 0.9 | 3.5 | 0.00 | 0.20 | 0.00 | 97 | 1010.5 |
| 20260510064932 | 76 | 158 | 1.7 | 6.1 | 0.00 | 0.20 | 0.00 | 97 | 1010.5 |
| 20260510064405 | 76 | 157 | 1.7 | 6.1 | 0.00 | 0.20 | 0.00 | 97 | 1010.5 |
| 20260510063902 | 76 | 156 | 0.9 | 5.2 | 0.00 | 0.20 | 0.00 | 97 | 1010.5 |
| 20260510063335 | 76 | 173 | 0.9 | 6.1 | 0.00 | 0.20 | 0.00 | 97 | 1010.5 |
| 20260510062832 | 76 | 173 | 0.9 | 6.1 | 0.00 | 0.20 | 0.00 | 96 | 1010.5 |
| 20260510062330 | 76 | 108 | 1.7 | 6.1 | 0.00 | 0.20 | 0.00 | 96 | 1010.4 |
| 20260510061826 | 76 | 133 | 2.6 | 8.7 | 0.00 | 0.20 | 0.00 | 96 | 1010.5 |
| 20260510061300 | 76 | 135 | 3.5 | 8.7 | 0.00 | 0.20 | 0.00 | 96 | 1010.5 |
| 20260510060756 | 76 | 156 | 3.5 | 9.6 | 0.00 | 0.20 | 0.00 | 96 | 1010.5 |
| 20260510060231 | 76 | 137 | 3.5 | 9.6 | 0.00 | 0.20 | 0.00 | 95 | 1010.6 |
| 20260510055934 | 76 | 154 | 2.6 | 9.6 | 0.00 | 0.20 | 0.00 | 95 | 1010.5 |
| 20260510055200 | 76 | 140 | 2.6 | 7.8 | 0.00 | 0.20 | 0.00 | 95 | 1010.5 |
| 20260510054907 | 76 | 119 | 3.5 | 7.8 | 0.00 | 0.20 | 0.00 | 95 | 1010.6 |
| 20260510054111 | 76 | 117 | 4.3 | 13.0 | 0.00 | 0.20 | 0.00 | 95 | 1010.7 |
| 20260510053544 | 76 | 133 | 5.2 | 13.0 | 0.00 | 0.20 | 0.00 | 95 | 1010.7 |
| 20260510053041 | 76 | 127 | 4.3 | 11.3 | 0.00 | 0.20 | 0.00 | 95 | 1010.7 |
| 20260510052540 | 76 | 154 | 3.5 | 12.2 | 0.00 | 0.20 | 0.00 | 95 | 1010.8 |
| 20260510052029 | 77 | 122 | 2.6 | 12.2 | 0.00 | 0.20 | 0.00 | 96 | 1010.9 |
| 20260510051800 | 77 | 130 | 2.6 | 7.8 | 0.00 | 0.20 | 0.00 | 96 | 1010.9 |
| 20260510051004 | 77 | 137 | 3.5 | 9.6 | 0.00 | 0.20 | 0.00 | 96 | 1010.9 |
| 20260510050505 | 77 | 123 | 3.5 | 9.6 | 0.00 | 0.20 | 0.00 | 96 | 1010.9 |
| 20260510050443 | 77 | 110 | 2.6 | 9.6 | 0.00 | 0.20 | 0.20 | 96 | 1010.8 |
| 20260510045440 | 77 | 141 | 2.6 | 9.6 | 0.00 | 0.20 | 0.20 | 96 | 1010.9 |
| 20260510044913 | 77 | 128 | 2.6 | 9.6 | 0.00 | 0.20 | 0.20 | 96 | 1010.9 |
| 20260510044409 | 76 | 105 | 2.6 | 7.0 | 0.00 | 0.20 | 0.20 | 95 | 1011.0 |
| 20260510043845 | 76 | 134 | 2.6 | 7.8 | 0.00 | 0.20 | 0.20 | 95 | 1011.1 |
| 20260510043317 | 76 | 93 | 2.6 | 8.7 | 0.00 | 0.20 | 0.20 | 95 | 1011.1 |
| 20260510042815 | 76 | 87 | 2.6 | 8.7 | 0.00 | 0.20 | 0.20 | 95 | 1011.1 |
| 20260510042311 | 76 | 89 | 2.6 | 7.8 | 0.00 | 0.20 | 0.20 | 95 | 1011.2 |
| 20260510041808 | 76 | 119 | 1.7 | 7.8 | 0.00 | 0.20 | 0.20 | 95 | 1011.4 |
| 20260510041241 | 76 | 70 | 1.7 | 7.8 | 0.00 | 0.20 | 0.20 | 95 | 1011.4 |
| 20260510040738 | 76 | 104 | 2.6 | 7.8 | 0.00 | 0.20 | 0.20 | 95 | 1011.3 |
| 20260510040226 | 76 | 88 | 3.5 | 7.8 | 0.00 | 0.20 | 0.20 | 95 | 1011.2 |
| 20260510035729 | 76 | 117 | 3.5 | 7.8 | 0.00 | 0.20 | 0.20 | 95 | 1011.1 |
| 20260510035201 | 76 | 135 | 3.5 | 7.8 | 0.00 | 0.20 | 0.20 | 95 | 1010.9 |
| 20260510034658 | 76 | 139 | 2.6 | 7.0 | 0.00 | 0.20 | 0.20 | 96 | 1011.0 |
| 20260510034131 | 76 | 125 | 1.7 | 5.2 | 0.00 | 0.20 | 0.20 | 96 | 1011.0 |
| 20260510033631 | 76 | 93 | 1.7 | 6.1 | 0.00 | 0.20 | 0.20 | 96 | 1011.1 |
| 20260510033107 | 77 | 88 | 4.3 | 10.4 | 0.00 | 0.20 | 0.20 | 96 | 1011.3 |
| 20260510033102 | 76 | 91 | 4.3 | 10.4 | 0.00 | 0.20 | 0.20 | 96 | 1011.3 |
| 20260510032031 | 77 | 88 | 2.6 | 8.7 | 0.00 | 0.20 | 0.20 | 96 | 1011.2 |
| 20260510031511 | 77 | 82 | 3.5 | 8.7 | 0.00 | 0.20 | 0.20 | 96 | 1011.2 |
| 20260510031443 | 77 | 88 | 3.5 | 10.4 | 0.00 | 0.20 | 0.20 | 96 | 1011.2 |
| 20260510030435 | 77 | 94 | 5.2 | 12.2 | 0.00 | 0.20 | 0.20 | 96 | 1011.2 |
| 20260510025910 | 77 | 75 | 6.1 | 14.8 | 0.00 | 0.20 | 0.20 | 96 | 1011.2 |
| 20260510025405 | 77 | 117 | 7.0 | 14.8 | 0.00 | 0.20 | 0.20 | 97 | 1011.1 |
| 20260510024902 | 77 | 67 | 7.0 | 14.8 | 0.00 | 0.20 | 0.20 | 97 | 1011.0 |
| 20260510024610 | 77 | 40 | 6.1 | 14.8 | 0.00 | 0.20 | 0.20 | 97 | 1010.9 |
| 20260510024116 | 74 | 125 | 1.7 | 5.2 | 0.00 | 0.20 | 0.20 | 97 | 1010.1 |
| 20260510024111 | 74 | 85 | 1.7 | 4.3 | 0.00 | 0.20 | 0.20 | 96 | 1010.2 |
| 20260510024107 | 74 | 133 | 1.7 | 7.0 | 0.00 | 0.20 | 0.20 | 97 | 1010.1 |
| 20260510024049 | 76 | 108 | 4.3 | 12.2 | 0.00 | 0.20 | 0.20 | 97 | 1010.7 |
| 20260510024007 | 74 | 84 | 2.6 | 7.8 | 0.00 | 0.20 | 0.20 | 96 | 1010.5 |
| 20260510022017 | 74 | 125 | 1.7 | 5.2 | 0.00 | 0.20 | 0.20 | 97 | 1010.1 |
| 20260510021221 | 74 | 128 | 2.6 | 7.8 | 0.00 | 0.20 | 0.20 | 98 | 1010.0 |
| 20260510020721 | 74 | 124 | 1.7 | 7.8 | 0.00 | 0.20 | 0.20 | 98 | 1009.8 |
| 20260510020154 | 75 | 137 | 0.9 | 3.5 | 0.00 | 0.20 | 0.20 | 99 | 1009.7 |
| 20260510015641 | 75 | 140 | 0.9 | 3.5 | 0.00 | 0.20 | 0.20 | 99 | 1009.4 |
| 20260510015140 | 75 | 140 | 0.0 | 0.9 | 0.00 | 0.20 | 0.20 | 99 | 1009.3 |
| 20260510014638 | 75 | 141 | 0.9 | 2.6 | 0.00 | 0.20 | 0.20 | 99 | 1009.2 |
| 20260510014138 | 75 | 140 | 0.9 | 2.6 | 0.00 | 0.20 | 0.20 | 99 | 1009.0 |
| 20260510013614 | 75 | 176 | 0.0 | 1.7 | 0.00 | 0.20 | 0.20 | 99 | 1008.8 |
| 20260510013103 | 74 | 209 | 0.0 | 1.7 | 0.01 | 0.20 | 0.20 | 99 | 1008.8 |
| 20260510012614 | 74 | 209 | 0.0 | 0.9 | 0.02 | 0.20 | 0.20 | 98 | 1008.6 |
| 20260510012035 | 74 | 209 | 0.9 | 1.7 | 0.08 | 0.20 | 0.20 | 98 | 1008.6 |
| 20260510011535 | 74 | 209 | 0.9 | 1.7 | 0.10 | 0.20 | 0.20 | 98 | 1008.2 |
| 20260510011020 | 74 | 209 | 0.9 | 4.3 | 0.14 | 0.20 | 0.20 | 98 | 1008.3 |
| 20260510010751 | 74 | 209 | 1.7 | 4.3 | 0.15 | 0.20 | 0.20 | 97 | 1008.3 |
| 20260510010236 | 74 | 220 | 0.9 | 4.3 | 0.16 | 0.20 | 0.20 | 97 | 1008.1 |
| 20260510005444 | 74 | 57 | 0.9 | 3.5 | 0.19 | 0.20 | 0.20 | 97 | 1008.0 |
| 20260510004943 | 74 | 57 | 1.7 | 4.3 | 0.19 | 0.20 | 0.20 | 96 | 1007.7 |
| 20260510004714 | 74 | 56 | 2.6 | 5.2 | 0.19 | 0.20 | 0.20 | 95 | 1007.6 |
| 20260510003925 | 74 | 57 | 3.5 | 7.0 | 0.19 | 0.20 | 0.20 | 94 | 1007.6 |
| 20260510003400 | 74 | 67 | 4.3 | 8.7 | 0.18 | 0.19 | 0.19 | 94 | 1007.9 |
| 20260510002859 | 75 | 66 | 4.3 | 8.7 | 0.17 | 0.18 | 0.19 | 93 | 1007.9 |
| 20260510002333 | 76 | 64 | 4.3 | 10.4 | 0.15 | 0.15 | 0.16 | 93 | 1008.1 |
| 20260510001811 | 76 | 14 | 3.5 | 10.4 | 0.11 | 0.11 | 0.11 | 91 | 1008.1 |
| 20260510001250 | 78 | 41 | 1.7 | 7.0 | 0.06 | 0.06 | 0.06 | 91 | 1007.8 |
| 20260510000723 | 78 | 84 | 1.7 | 7.0 | 0.05 | 0.05 | 0.05 | 89 | 1007.6 |
| 20260510000221 | 79 | 84 | 3.5 | 9.6 | 0.04 | 0.04 | 0.04 | 87 | 1007.7 |
| 20260509235717 | 80 | 60 | 4.3 | 9.6 | 0.02 | 0.02 | 0.03 | 85 | 1007.8 |
| 20260509235151 | 80 | 70 | 3.5 | 6.1 | 0.01 | 0.01 | 0.01 | 84 | 1007.7 |
| 20260509234625 | 80 | 49 | 2.6 | 6.1 | 0.01 | 0.01 | 0.01 | 82 | 1007.8 |
| 20260509234601 | 80 | 97 | 2.6 | 6.1 | 0.01 | 0.01 | 0.01 | 77 | 1007.5 |
| 20260509233531 | 80 | 105 | 6.1 | 16.5 | 0.01 | 0.01 | 0.01 | 73 | 1007.3 |
| 20260509233004 | 82 | 189 | 7.8 | 16.5 | 0.01 | 0.01 | 0.01 | 66 | 1007.7 |
| 20260509232733 | 87 | 226 | 5.2 | 13.9 | 0.00 | 0.00 | 0.00 | 70 | 1007.8 |
| 20260509231933 | 91 | 158 | 2.6 | 8.7 | 0.00 | 0.00 | 0.00 | 65 | 1007.5 |
| 20260509230903 | 92 | 98 | 1.7 | 6.1 | 0.00 | 0.00 | 0.00 | 62 | 1007.3 |
| 20260509230632 | 92 | 81 | 1.7 | 5.2 | 0.00 | 0.00 | 0.00 | 62 | 1007.3 |
| 20260509225833 | 93 | 86 | 0.9 | 5.2 | 0.00 | 0.00 | 0.00 | 61 | 1007.1 |
| 20260509225308 | 93 | 114 | 1.7 | 5.2 | 0.00 | 0.00 | 0.00 | 59 | 1007.1 |
| 20260509225013 | 94 | 114 | 1.7 | 5.2 | 0.00 | 0.00 | 0.00 | 58 | 1007.1 |
| 20260509224237 | 95 | 141 | 0.9 | 5.2 | 0.00 | 0.00 | 0.00 | 57 | 1007.0 |
| 20260509223734 | 95 | 139 | 0.9 | 4.3 | 0.00 | 0.00 | 0.00 | 57 | 1007.1 |
| 20260509223503 | 96 | 63 | 1.7 | 6.1 | 0.00 | 0.00 | 0.00 | 57 | 1007.0 |
| 20260509222716 | 96 | 115 | 0.9 | 5.2 | 0.00 | 0.00 | 0.00 | 57 | 1007.0 |
| 20260509222705 | 96 | 70 | 1.7 | 6.1 | 0.00 | 0.00 | 0.00 | 56 | 1007.0 |
| 20260509221657 | 96 | 125 | 0.9 | 4.3 | 0.00 | 0.00 | 0.00 | 56 | 1006.9 |
| 20260509221154 | 96 | 29 | 0.9 | 4.3 | 0.00 | 0.00 | 0.00 | 57 | 1006.9 |
| 20260509220650 | 95 | 28 | 1.7 | 4.3 | 0.00 | 0.00 | 0.00 | 58 | 1006.9 |
| 20260509215646 | 94 | 287 | 1.7 | 6.1 | 0.00 | 0.00 | 0.00 | 58 | 1006.8 |
| 20260509215141 | 94 | 286 | 2.6 | 8.7 | 0.00 | 0.00 | 0.00 | 58 | 1006.9 |
| 20260509214614 | 94 | 20 | 1.7 | 8.7 | 0.00 | 0.00 | 0.00 | 60 | 1007.0 |
| 20260509214112 | 93 | 316 | 1.7 | 6.1 | 0.00 | 0.00 | 0.00 | 62 | 1006.9 |
| 20260509213551 | 93 | 239 | 2.6 | 6.1 | 0.00 | 0.00 | 0.00 | 61 | 1006.9 |
| 20260509213018 | 94 | 238 | 2.6 | 6.1 | 0.00 | 0.00 | 0.00 | 59 | 1007.0 |
| 20260509212515 | 95 | 297 | 1.7 | 6.1 | 0.00 | 0.00 | 0.00 | 59 | 1006.9 |
| 20260509211948 | 94 | 4 | 1.7 | 6.1 | 0.00 | 0.00 | 0.00 | 61 | 1006.9 |
| 20260509211446 | 95 | 298 | 1.7 | 6.1 | 0.00 | 0.00 | 0.00 | 59 | 1007.0 |
| 20260509210918 | 96 | 314 | 1.7 | 4.3 | 0.00 | 0.00 | 0.00 | 58 | 1007.1 |
| 20260509210417 | 95 | 308 | 1.7 | 4.3 | 0.00 | 0.00 | 0.00 | 58 | 1007.1 |
| 20260509205848 | 95 | 347 | 0.9 | 4.3 | 0.00 | 0.00 | 0.00 | 60 | 1007.2 |
| 20260509205346 | 95 | 359 | 1.7 | 7.8 | 0.00 | 0.00 | 0.00 | 59 | 1007.4 |
| 20260509204844 | 95 | 9 | 2.6 | 7.8 | 0.00 | 0.00 | 0.00 | 59 | 1007.4 |
| 20260509204542 | 96 | 338 | 1.7 | 7.0 | 0.00 | 0.00 | 0.00 | 59 | 1007.4 |
| 20260509203748 | 95 | 28 | 1.7 | 4.3 | 0.00 | 0.00 | 0.00 | 60 | 1007.4 |
| 20260509203225 | 95 | 335 | 1.7 | 7.8 | 0.00 | 0.00 | 0.00 | 59 | 1007.5 |
| 20260509202656 | 95 | 10 | 1.7 | 6.1 | 0.00 | 0.00 | 0.00 | 59 | 1007.6 |
| 20260509202425 | 94 | 21 | 2.6 | 4.3 | 0.00 | 0.00 | 0.00 | 59 | 1007.6 |
| 20260509201627 | 94 | 332 | 1.7 | 5.2 | 0.00 | 0.00 | 0.00 | 61 | 1007.6 |
| 20260509201335 | 93 | 9 | 1.7 | 5.2 | 0.00 | 0.00 | 0.00 | 62 | 1007.6 |
| 20260509200539 | 92 | 336 | 1.7 | 7.8 | 0.00 | 0.00 | 0.00 | 63 | 1007.7 |
| 20260509200011 | 92 | 293 | 2.6 | 7.8 | 0.00 | 0.00 | 0.00 | 61 | 1007.8 |
| 20260509195510 | 93 | 285 | 2.6 | 8.7 | 0.00 | 0.00 | 0.00 | 62 | 1007.9 |
| 20260509195240 | 93 | 318 | 2.6 | 8.7 | 0.00 | 0.00 | 0.00 | 63 | 1007.9 |
| 20260509194449 | 92 | 325 | 2.6 | 7.8 | 0.00 | 0.00 | 0.00 | 64 | 1008.0 |
| 20260509193949 | 92 | 14 | 1.7 | 7.0 | 0.00 | 0.00 | 0.00 | 64 | 1008.0 |
| 20260509193700 | 92 | 335 | 0.9 | 5.2 | 0.00 | 0.00 | 0.00 | 67 | 1008.1 |
| 20260509192931 | 91 | 192 | 0.0 | 6.1 | 0.00 | 0.00 | 0.00 | 67 | 1008.0 |
| 20260509192425 | 89 | 199 | 1.7 | 6.1 | 0.00 | 0.00 | 0.00 | 67 | 1008.2 |
| 20260509191925 | 90 | 246 | 2.6 | 6.1 | 0.00 | 0.00 | 0.00 | 67 | 1008.2 |
| 20260509191408 | 90 | 322 | 1.7 | 6.1 | 0.00 | 0.00 | 0.00 | 69 | 1008.3 |
| 20260509190910 | 89 | 288 | 0.9 | 2.6 | 0.00 | 0.00 | 0.00 | 68 | 1008.3 |
| 20260509190353 | 89 | 320 | 1.7 | 6.1 | 0.00 | 0.00 | 0.00 | 68 | 1008.3 |
| 20260509185858 | 89 | 304 | 1.7 | 6.1 | 0.00 | 0.00 | 0.00 | 69 | 1008.3 |
| 20260509185335 | 89 | 228 | 2.6 | 7.0 | 0.00 | 0.00 | 0.00 | 70 | 1008.3 |
| 20260509184810 | 89 | 123 | 3.5 | 7.0 | 0.00 | 0.00 | 0.00 | 70 | 1008.3 |
| 20260509184255 | 88 | 153 | 1.7 | 6.1 | 0.00 | 0.00 | 0.00 | 70 | 1008.5 |
| 20260509183728 | 87 | 228 | 2.6 | 7.8 | 0.00 | 0.00 | 0.00 | 74 | 1008.6 |
| 20260509183207 | 86 | 192 | 3.5 | 7.8 | 0.00 | 0.00 | 0.00 | 74 | 1008.7 |
| 20260509182642 | 86 | 249 | 2.6 | 8.7 | 0.00 | 0.00 | 0.00 | 75 | 1008.7 |
| 20260509182142 | 86 | 223 | 2.6 | 8.7 | 0.00 | 0.00 | 0.00 | 75 | 1008.8 |
| 20260509181640 | 86 | 154 | 2.6 | 7.0 | 0.00 | 0.00 | 0.00 | 77 | 1009.0 |
| 20260509181345 | 86 | 171 | 2.6 | 7.8 | 0.00 | 0.00 | 0.00 | 77 | 1009.1 |
| 20260509180549 | 85 | 168 | 3.5 | 7.8 | 0.00 | 0.00 | 0.00 | 77 | 1009.3 |
| 20260509180034 | 85 | 212 | 3.5 | 7.8 | 0.00 | 0.00 | 0.00 | 78 | 1009.5 |
| 20260509175806 | 85 | 242 | 3.5 | 7.0 | 0.00 | 0.00 | 0.00 | 80 | 1009.5 |
| 20260509175009 | 85 | 249 | 3.5 | 8.7 | 0.00 | 0.00 | 0.00 | 80 | 1009.5 |
| 20260509174505 | 85 | 270 | 3.5 | 8.7 | 0.00 | 0.01 | 0.00 | 80 | 1009.5 |
| 20260509174211 | 84 | 97 | 4.3 | 8.7 | 0.00 | 0.01 | 0.00 | 81 | 1009.5 |
| 20260509173646 | 84 | 206 | 4.3 | 10.4 | 0.00 | 0.01 | 0.00 | 82 | 1009.5 |
| 20260509172857 | 83 | 193 | 3.5 | 10.4 | 0.00 | 0.01 | 0.00 | 83 | 1009.6 |
| 20260509172617 | 83 | 248 | 2.6 | 8.7 | 0.00 | 0.01 | 0.00 | 84 | 1009.7 |
| 20260509171843 | 83 | 222 | 2.6 | 6.1 | 0.00 | 0.01 | 0.00 | 85 | 1009.8 |
| 20260509171317 | 83 | 199 | 2.6 | 6.1 | 0.00 | 0.01 | 0.00 | 86 | 1010.0 |
| 20260509170749 | 82 | 195 | 1.7 | 5.2 | 0.00 | 0.02 | 0.00 | 86 | 1010.0 |
| 20260509170247 | 82 | 197 | 1.7 | 5.2 | 0.00 | 0.02 | 0.00 | 87 | 1010.0 |
| 20260509170221 | 82 | 193 | 2.6 | 6.1 | 0.00 | 0.02 | 0.00 | 87 | 1010.1 |
| 20260509165216 | 82 | 197 | 2.6 | 6.1 | 0.00 | 0.02 | 0.00 | 86 | 1010.1 |
| 20260509164648 | 82 | 187 | 1.7 | 4.3 | 0.00 | 0.02 | 0.00 | 86 | 1010.0 |
| 20260509164145 | 82 | 196 | 1.7 | 4.3 | 0.00 | 0.02 | 0.00 | 86 | 1010.0 |
| 20260509163643 | 82 | 195 | 0.9 | 6.1 | 0.00 | 0.03 | 0.00 | 86 | 1010.0 |
| 20260509163413 | 82 | 270 | 0.0 | 2.6 | 0.00 | 0.03 | 0.00 | 87 | 1010.0 |
| 20260509162617 | 82 | 297 | 0.9 | 2.6 | 0.00 | 0.03 | 0.00 | 86 | 1010.0 |
| 20260509162611 | 82 | 297 | 0.9 | 3.5 | 0.00 | 0.03 | 0.00 | 86 | 1009.9 |
| 20260509161606 | 82 | 260 | 0.9 | 3.5 | 0.00 | 0.03 | 0.00 | 86 | 1010.1 |
| 20260509161107 | 82 | 310 | 0.9 | 3.5 | 0.00 | 0.03 | 0.00 | 86 | 1010.1 |
| 20260509160600 | 82 | 317 | 1.7 | 4.3 | 0.00 | 0.03 | 0.00 | 86 | 1010.0 |
| 20260509160034 | 82 | 316 | 0.9 | 4.3 | 0.00 | 0.03 | 0.00 | 87 | 1010.0 |
| 20260509155531 | 82 | 259 | 0.9 | 3.5 | 0.00 | 0.03 | 0.00 | 87 | 1009.9 |
| 20260509155003 | 82 | 239 | 0.0 | 3.5 | 0.00 | 0.03 | 0.00 | 87 | 1009.9 |
| 20260509154500 | 81 | 138 | 0.0 | 0.0 | 0.00 | 0.03 | 0.00 | 88 | 1009.9 |
| 20260509153936 | 81 | 137 | 0.0 | 0.0 | 0.00 | 0.03 | 0.00 | 89 | 1009.9 |
| 20260509153431 | 81 | 137 | 0.0 | 0.0 | 0.00 | 0.03 | 0.00 | 91 | 1009.8 |
| 20260509152903 | 80 | 137 | 0.0 | 0.0 | 0.00 | 0.03 | 0.00 | 92 | 1009.8 |
| 20260509152401 | 80 | 137 | 0.0 | 0.0 | 0.00 | 0.03 | 0.00 | 93 | 1010.0 |
| 20260509151833 | 79 | 137 | 0.0 | 0.0 | 0.00 | 0.03 | 0.00 | 93 | 1010.0 |
| 20260509151602 | 79 | 137 | 0.0 | 0.0 | 0.00 | 0.04 | 0.00 | 94 | 1010.0 |
| 20260509150806 | 79 | 137 | 0.0 | 0.0 | 0.00 | 0.04 | 0.00 | 94 | 1010.0 |
| 20260509150304 | 78 | 137 | 0.0 | 0.0 | 0.00 | 0.04 | 0.00 | 95 | 1009.9 |
| 20260509145735 | 78 | 137 | 0.0 | 0.0 | 0.00 | 0.04 | 0.00 | 96 | 1009.7 |
| 20260509145205 | 78 | 137 | 0.0 | 0.0 | 0.00 | 0.04 | 0.00 | 97 | 1009.7 |
| 20260509144703 | 78 | 138 | 0.0 | 0.0 | 0.00 | 0.04 | 0.00 | 97 | 1009.8 |
| 20260509144208 | 77 | 138 | 0.0 | 0.0 | 0.00 | 0.04 | 0.00 | 97 | 1009.7 |
| 20260509143646 | 77 | 137 | 0.0 | 1.7 | 0.00 | 0.04 | 0.00 | 97 | 1009.6 |
| 20260509143145 | 77 | 137 | 0.0 | 1.7 | 0.00 | 0.04 | 0.00 | 98 | 1009.5 |
| 20260509142617 | 77 | 137 | 0.0 | 1.7 | 0.00 | 0.04 | 0.00 | 98 | 1009.6 |
| 20260509142114 | 77 | 138 | 0.9 | 3.5 | 0.00 | 0.04 | 0.00 | 98 | 1009.5 |
| 20260509141819 | 77 | 137 | 0.9 | 5.2 | 0.00 | 0.04 | 0.00 | 99 | 1009.1 |
| 20260509141318 | 77 | 145 | 1.7 | 5.2 | 0.00 | 0.04 | 0.00 | 99 | 1008.9 |
| 20260509140818 | 77 | 190 | 1.7 | 4.3 | 0.00 | 0.04 | 0.00 | 99 | 1009.1 |
| 20260509140043 | 76 | 187 | 0.9 | 3.5 | 0.00 | 0.04 | 0.00 | 100 | 1009.1 |
| 20260509140019 | 76 | 185 | 0.9 | 2.6 | 0.00 | 0.04 | 0.00 | 100 | 1009.2 |
| 20260509135016 | 76 | 187 | 1.7 | 3.5 | 0.00 | 0.04 | 0.00 | 100 | 1009.3 |
| 20260509134737 | 76 | 192 | 1.7 | 4.3 | 0.00 | 0.04 | 0.00 | 100 | 1009.4 |
| 20260509134006 | 76 | 186 | 1.7 | 4.3 | 0.00 | 0.04 | 0.00 | 100 | 1009.7 |
| 20260509133437 | 76 | 217 | 0.9 | 3.5 | 0.00 | 0.04 | 0.00 | 100 | 1009.7 |
| 20260509132917 | 76 | 217 | 0.9 | 2.6 | 0.00 | 0.04 | 0.00 | 100 | 1010.1 |
| 20260509132421 | 76 | 218 | 1.7 | 3.5 | 0.00 | 0.04 | 0.00 | 100 | 1010.3 |
| 20260509131853 | 76 | 218 | 0.9 | 3.5 | 0.00 | 0.04 | 0.00 | 100 | 1010.3 |
| 20260509131349 | 76 | 216 | 0.9 | 2.6 | 0.00 | 0.04 | 0.00 | 100 | 1010.1 |
| 20260509130831 | 76 | 216 | 0.0 | 1.7 | 0.00 | 0.04 | 0.00 | 100 | 1010.1 |
| 20260509130543 | 76 | 216 | 0.9 | 3.5 | 0.00 | 0.04 | 0.00 | 100 | 1010.1 |
| 20260509130425 | 75 | 216 | 0.9 | 3.5 | 0.00 | 0.04 | 0.00 | 100 | 1010.1 |
| 20260509125251 | 75 | 215 | 0.9 | 3.5 | 0.00 | 0.04 | 0.00 | 100 | 1010.0 |
| 20260509125021 | 75 | 113 | 0.0 | 3.5 | 0.00 | 0.04 | 0.00 | 100 | 1009.9 |
| 20260509124528 | 75 | 110 | 0.0 | 1.7 | 0.00 | 0.04 | 0.00 | 100 | 1009.7 |
| 20260509123719 | 75 | 109 | 0.0 | 0.9 | 0.00 | 0.04 | 0.00 | 100 | 1009.8 |
| 20260509123156 | 75 | 109 | 0.0 | 0.9 | 0.00 | 0.04 | 0.00 | 100 | 1009.8 |
| 20260509122655 | 75 | 109 | 0.0 | 0.9 | 0.00 | 0.04 | 0.00 | 100 | 1009.7 |
| 20260509122402 | 74 | 109 | 0.0 | 0.9 | 0.00 | 0.04 | 0.00 | 100 | 1009.8 |
| 20260509121604 | 74 | 109 | 0.0 | 0.0 | 0.00 | 0.04 | 0.00 | 100 | 1009.7 |
| 20260509121107 | 74 | 109 | 0.0 | 0.0 | 0.00 | 0.04 | 0.00 | 100 | 1009.7 |
| 20260509120556 | 74 | 109 | 0.0 | 0.9 | 0.00 | 0.04 | 0.00 | 100 | 1009.5 |
| 20260509120031 | 74 | 109 | 0.9 | 1.7 | 0.00 | 0.04 | 0.00 | 100 | 1009.4 |
| 20260509115505 | 74 | 109 | 0.9 | 1.7 | 0.00 | 0.04 | 0.00 | 100 | 1009.5 |
| 20260509115002 | 75 | 109 | 0.0 | 1.7 | 0.00 | 0.04 | 0.00 | 100 | 1009.4 |
| 20260509114459 | 75 | 109 | 0.9 | 2.6 | 0.00 | 0.04 | 0.00 | 100 | 1009.4 |
| 20260509113934 | 75 | 109 | 0.9 | 2.6 | 0.00 | 0.04 | 0.00 | 100 | 1009.6 |
| 20260509113407 | 75 | 109 | 0.0 | 2.6 | 0.00 | 0.04 | 0.00 | 100 | 1010.0 |
| 20260509112841 | 75 | 109 | 0.0 | 2.6 | 0.00 | 0.04 | 0.00 | 100 | 1010.0 |
| 20260509112315 | 74 | 112 | 0.0 | 1.7 | 0.00 | 0.04 | 0.00 | 100 | 1009.8 |
| 20260509111748 | 74 | 112 | 0.0 | 1.7 | 0.00 | 0.04 | 0.00 | 100 | 1009.7 |
| 20260509111245 | 74 | 112 | 0.0 | 2.6 | 0.00 | 0.04 | 0.00 | 100 | 1009.6 |
| 20260509110744 | 74 | 112 | 0.9 | 2.6 | 0.00 | 0.04 | 0.00 | 100 | 1009.6 |
| 20260509110239 | 74 | 112 | 0.9 | 2.6 | 0.00 | 0.04 | 0.00 | 100 | 1009.5 |
| 20260509105712 | 74 | 112 | 0.0 | 2.6 | 0.00 | 0.04 | 0.00 | 100 | 1009.4 |
| 20260509105209 | 74 | 142 | 0.0 | 0.0 | 0.00 | 0.04 | 0.00 | 100 | 1009.3 |
| 20260509104643 | 75 | 141 | 0.0 | 0.0 | 0.00 | 0.04 | 0.00 | 100 | 1009.1 |
| 20260509104138 | 75 | 142 | 0.0 | 0.0 | 0.00 | 0.04 | 0.00 | 100 | 1008.9 |
| 20260509103906 | 75 | 142 | 0.0 | 0.0 | 0.00 | 0.04 | 0.00 | 100 | 1009.0 |
| 20260509103340 | 75 | 142 | 0.0 | 0.0 | 0.00 | 0.04 | 0.00 | 100 | 1009.1 |
| 20260509102837 | 75 | 142 | 0.0 | 0.0 | 0.00 | 0.04 | 0.00 | 100 | 1009.0 |
| 20260509102039 | 75 | 141 | 0.0 | 0.0 | 0.00 | 0.04 | 0.00 | 100 | 1008.9 |
| 20260509101744 | 75 | 142 | 0.0 | 0.0 | 0.00 | 0.04 | 0.00 | 100 | 1009.0 |
| 20260509101009 | 75 | 142 | 0.0 | 0.0 | 0.00 | 0.04 | 0.00 | 100 | 1008.9 |
| 20260509100506 | 75 | 142 | 0.0 | 0.0 | 0.00 | 0.04 | 0.00 | 100 | 1008.9 |
| 20260509100005 | 75 | 142 | 0.0 | 0.0 | 0.00 | 0.04 | 0.00 | 100 | 1008.9 |
| 20260509095437 | 75 | 142 | 0.0 | 0.0 | 0.00 | 0.04 | 0.00 | 100 | 1008.8 |
| 20260509094935 | 75 | 142 | 0.0 | 0.0 | 0.00 | 0.04 | 0.00 | 100 | 1009.0 |
| 20260509094407 | 75 | 142 | 0.0 | 0.0 | 0.00 | 0.04 | 0.00 | 100 | 1008.8 |
| 20260509093841 | 75 | 142 | 0.0 | 0.0 | 0.00 | 0.04 | 0.00 | 100 | 1008.8 |
| 20260509093337 | 75 | 141 | 0.9 | 1.7 | 0.00 | 0.04 | 0.00 | 100 | 1009.0 |
| 20260509092853 | 75 | 142 | 0.9 | 1.7 | 0.00 | 0.04 | 0.00 | 100 | 1008.9 |
| 20260509091742 | 75 | 145 | 0.0 | 1.7 | 0.00 | 0.04 | 0.00 | 100 | 1009.0 |
| 20260509091237 | 75 | 145 | 0.0 | 1.7 | 0.00 | 0.04 | 0.00 | 100 | 1009.1 |
| 20260509090710 | 75 | 145 | 0.0 | 0.9 | 0.00 | 0.04 | 0.00 | 100 | 1009.1 |
| 20260509090206 | 75 | 145 | 0.0 | 0.9 | 0.00 | 0.04 | 0.00 | 100 | 1009.0 |
| 20260509085702 | 75 | 145 | 0.0 | 0.0 | 0.00 | 0.04 | 0.00 | 100 | 1009.1 |
| 20260509085159 | 75 | 145 | 0.0 | 0.9 | 0.00 | 0.04 | 0.00 | 100 | 1008.9 |
| 20260509084633 | 75 | 145 | 0.0 | 0.9 | 0.00 | 0.04 | 0.00 | 100 | 1008.9 |
| 20260509084106 | 75 | 145 | 0.0 | 3.5 | 0.00 | 0.04 | 0.00 | 100 | 1008.9 |
| 20260509083606 | 75 | 145 | 0.9 | 3.5 | 0.00 | 0.04 | 0.00 | 100 | 1008.7 |